Location: *
(46.4000°N, 12.6667°E)
Time: 00:26:35
(UTC+00:00)

Cosmos 1821 Rocket - Pass Details

Date: 09 April 2020
Orbit: 945 x 1005 km, 82.9° (Epoch: 04 June)

Event Time Altitude Azimuth Distance (km) Brightness Sun altitude
Rises 20:16:59 0° 354° (N) 3,731 7.8 -23.3°
Reaches altitude 10° 20:19:35 10° 358° (N) 2,782 6.9 -23.6°
Maximum altitude 20:25:54 58° 77° (ENE) 1,161 4.1 -24.4°
Enters shadow 20:26:57 52° 114° (ESE) 1,235 4.1 -24.5°
